Showing default

SPACEMOBILE-003, 61045

Orbit data source: Space-Track

SPACEMOBILE-003, 61045 is a payload satellite owned by AST & Science (US) in LEO that was launched on Thu, 12 Sep 2024 UTC via an FALCON 9 launch vehicle from the Air Force Eastern Test Range (AFETR). Payload-class satellites include a variety of spacecraft equipped with specific instruments for various scientific and technological missions. These include communications satellites like Starlink; space stations such as the ISS; scientific satellites like the Hubble; Earth observation satellites from companies like Planet Labs, Umbra, and HawkEye 360; GPS; miniature CubeSats for education and research; and military/defense satellites.

Loading next visibility...
Identifier
61045, 2024-163A
Orbit
LEO
Last TLE update
14 hours ago
Origin
Manufacturer
AST & Science
Mission
Operational Commercial Communications
Bus & Motor
BW3, Unknown motor
Mass
1,500 kg wet, 1,500 kg dry
Launch date (UTC)
2024-09-12 (10 months ago)
Launch vehicle
FALCON 9
Launch site
Air Force Eastern Test Range (AFETR)
Object type
Payload
Rocket body
Debris
Shape & HBR
Box + 1 Plate, 9 m
Radar Cross Section
1.500 m², Large (>1 m²)

Expand to show TLE details & history

TLE from 14 hours ago
0 SPACEMOBILE-003
1 61045U 24163A   25181.83895249  .00002733  00000-0  13858-3 0  9990
2 61045  52.9704 125.2643 0011241 133.9796 226.2127 15.20377652 44306
Epoch: 2025-06-30T20:08Z
TLE epoch observation values (Epoch: 2025-06-30T20:08:05.495Z)
Latitude
0.00001°
Longitude
-95.90159°
Altitude
510.934 km
Speed
7.607 km/s
True Right ascension
08h 21m 03s
True Declination
0° 00' 00"
Sunlit
Object was in daylight at epoch
Visualization orbit readout
Latitude
-40.80145°
Longitude
-138.93683°
Altitude
525.781 km
Speed
7.596 km/s
Apparent Right ascension
07h 31m 45s
Apparent Declination
-44° 51' 06"
Sunlit
Object is in daylight
Visualization observer readout
Local Sidereal Time
21:44:00
Azimuth
112.435° ESE
Elevation
-65.264°
Doppler factor
1
Orbital elements
Apogee altitude
512.724 km
Perigee altitude
497.249 km
Semi-major axis
6,883.123 km
Eccentricity
0.00112
Inclination
52.9704°
RAAN
125.2643°
Arg. of periapsis
133.9796°
True anomaly
Unknown
Mean anomaly
226.2127°
Eccentric anomaly
Unknown
Mean motion
3.80071 °/min
Orbital period
94.72 mins
BSTAR
0.00013858
Loading maneuver chart data...
Loading SW <> Apogee altitude chart data...
Loading historical data...
Loading historical data...
Loading historical data...
Loading historical data...
Loading historical data...
Loading historical data...
Loading historical data...

SPACEMOBILE-003 Visibility forecast

Observer location: undefined°, undefined°

Span
Click to sort rows by Start time (UTC) header in descending order
Start Az.
Max El. time (UTC)
Max El. Az.
Max El.
End time (UTC)
End Az.
4 mins2025-07-01 21:31:36.806Z162.414° S2025-07-01 21:33:36.806Z130.216° SE14.894°2025-07-01 21:35:36.806Z96.091° ESE
6 mins2025-07-01 23:09:36.806Z244.267° WSW2025-07-01 23:11:36.806Z287.67° WNW41.26°2025-07-01 23:15:36.806Z45.343° ENE
4 mins2025-07-02 00:49:36.806Z313.385° NW2025-07-02 00:51:36.806Z350.9° N15.97°2025-07-02 00:53:36.806Z22.73° NE
4 mins2025-07-02 04:09:36.806Z358.393° N2025-07-02 04:10:36.806Z20.907° NNE20.514°2025-07-02 04:13:36.806Z75.37° E
5 mins2025-07-02 05:47:36.806Z300.72° NW2025-07-02 05:49:36.806Z225.634° WSW43.273°2025-07-02 05:52:36.806Z140.243° SSE
|